This is the latest recevied weather packets stored in our database for station/object N7NMS-13. If no packets are shown the sender has not sent any weather packets the latest 10 day(s).
| Time | Temp. | Humidity | Pressure | Rain* | Wind** | Luminosity | Snow |
|---|---|---|---|---|---|---|---|
| 1778012416 | 24.44° C | 32% | - | 0 mm | - | - | - |
| 1778011816 | 24.44° C | 32% | - | 0 mm | - | - | - |
| 1778011216 | 24.44° C | 30% | - | 0 mm | - | - | - |
| 1778010615 | 25.56° C | 29% | - | 0 mm | - | - | - |
| 1778010015 | 25.56° C | 30% | - | 0 mm | - | - | - |
| 1778009415 | 25.56° C | 29% | - | 0 mm | - | - | - |
| 1778008815 | 25.56° C | 31% | - | 0 mm | - | - | - |
| 1778008215 | 25.56° C | 28% | - | 0 mm | - | - | - |
| 1778007615 | 25° C | 30% | - | 0 mm | - | - | - |
| 1778007014 | 25.56° C | 29% | - | 0 mm | - | - | - |
| 1778006414 | 25° C | 30% | - | 0 mm | - | - | - |
| 1778005814 | 25° C | 32% | - | 0 mm | - | - | - |
| 1778005214 | 25° C | 33% | - | 0 mm | - | - | - |
| 1778004614 | 24.44° C | 33% | - | 0 mm | - | - | - |
| 1778004014 | 24.44° C | 33% | - | 0 mm | - | - | - |
| 1778003414 | 24.44° C | 32% | - | 0 mm | - | - | - |
| 1778002813 | 24.44° C | 35% | - | 0 mm | - | - | - |
| 1778002213 | 23.89° C | 39% | - | 0 mm | - | - | - |
| 1778001613 | 22.78° C | 39% | - | 0 mm | - | - | - |
| 1778001013 | 22.22° C | 43% | - | 0 mm | - | - | - |
| 1778000413 | 22.78° C | 41% | - | 0 mm | - | - | - |
| 1777999812 | 22.78° C | 41% | - | 0 mm | - | - | - |
| 1777999212 | 22.78° C | 40% | - | 0 mm | - | - | - |
| 1777998612 | 23.33° C | 44% | - | 0 mm | - | - | - |
| 1777998012 | 23.33° C | 43% | - | 0 mm | - | - | - |
* Rain latest hour (hover to see other rain measurements)
** Current wind speed in m/s (hover to see current wind gust speed)